Time,TemperatureF,DewpointF,PressureIn,WindDirection,WindDirectionDegrees,WindSpeedMPH,WindSpeedGustMPH,Humidity,HourlyPrecipIn,Conditions,Clouds,dailyrainin,SoftwareType,DateUTC
2013-11-04 00:01:00,41.5,36.5,30.30,ESE,114,3.0,7.0,82,0.00,,,0.00,meteohub,2013-11-04 05:01:00,
2013-11-04 00:02:00,41.5,36.5,30.30,East,91,1.0,7.0,82,0.00,,,0.00,meteohub,2013-11-04 05:02:00,
2013-11-04 00:03:00,41.5,36.5,30.31,East,91,0.0,7.0,82,0.00,,,0.00,meteohub,2013-11-04 05:03:00,
2013-11-04 00:09:00,41.4,36.3,30.31,ENE,78,1.0,4.0,82,0.00,,,0.00,meteohub,2013-11-04 05:09:00,
2013-11-04 00:14:00,41.4,36.5,30.31,East,81,1.0,4.0,83,0.00,,,0.00,meteohub,2013-11-04 05:14:00,
2013-11-04 00:19:00,41.2,36.1,30.32,East,84,1.0,3.0,82,0.00,,,0.00,meteohub,2013-11-04 05:19:00,
2013-11-04 00:24:00,41.0,36.3,30.32,NE,54,2.0,3.0,83,0.00,,,0.00,meteohub,2013-11-04 05:24:00,
2013-11-04 00:29:00,40.8,36.1,30.32,ENE,71,1.0,3.0,83,0.00,,,0.00,meteohub,2013-11-04 05:29:00,
2013-11-04 00:34:00,40.8,36.1,30.32,ENE,71,1.0,3.0,83,0.00,,,0.00,meteohub,2013-11-04 05:34:00,
2013-11-04 00:39:00,40.8,36.1,30.32,East,99,2.0,3.0,83,0.00,,,0.00,meteohub,2013-11-04 05:39:00,
2013-11-04 00:44:00,40.8,36.1,30.32,East,89,0.0,3.0,83,0.00,,,0.00,meteohub,2013-11-04 05:44:00,
2013-11-04 00:49:00,40.8,36.1,30.32,ENE,77,1.0,2.0,83,0.00,,,0.00,meteohub,2013-11-04 05:49:00,
2013-11-04 00:54:00,40.8,36.3,30.32,East,81,1.0,3.0,84,0.00,,,0.00,meteohub,2013-11-04 05:54:00,
2013-11-04 01:00:00,40.8,36.3,30.32,ENE,75,1.0,3.0,84,0.00,,,0.00,meteohub,2013-11-04 06:00:00,
2013-11-04 01:05:00,40.8,36.1,30.32,ENE,72,3.0,3.0,83,0.00,,,0.00,meteohub,2013-11-04 06:05:00,
2013-11-04 01:10:00,40.8,36.3,30.32,East,81,2.0,3.0,84,0.00,,,0.00,meteohub,2013-11-04 06:10:00,
2013-11-04 01:15:00,40.8,36.1,30.32,ESE,103,1.0,4.0,83,0.00,,,0.00,meteohub,2013-11-04 06:15:00,
2013-11-04 01:20:00,41.0,36.3,30.32,East,100,2.0,4.0,83,0.00,,,0.00,meteohub,2013-11-04 06:20:00,
2013-11-04 01:25:00,41.0,36.3,30.32,ENE,67,2.0,4.0,83,0.00,,,0.00,meteohub,2013-11-04 06:25:00,
2013-11-04 01:30:00,41.0,36.3,30.32,SE,141,1.0,3.0,83,0.00,,,0.00,meteohub,2013-11-04 06:30:00,
2013-11-04 01:35:00,41.2,36.5,30.32,ENE,61,3.0,3.0,83,0.00,,,0.00,meteohub,2013-11-04 06:35:00,
2013-11-04 01:40:00,41.2,36.1,30.33,ESE,114,1.0,3.0,82,0.00,,,0.00,meteohub,2013-11-04 06:40:00,
2013-11-04 01:45:00,41.2,36.1,30.33,ENE,78,1.0,4.0,82,0.00,,,0.00,meteohub,2013-11-04 06:45:00,
2013-11-04 01:50:00,41.2,36.1,30.32,East,79,2.0,4.0,82,0.00,,,0.00,meteohub,2013-11-04 06:50:00,
2013-11-04 01:55:00,41.0,36.0,30.32,NE,50,1.0,4.0,82,0.00,,,0.00,meteohub,2013-11-04 06:55:00,
2013-11-04 02:01:00,40.8,36.1,30.32,ESE,112,3.0,3.0,83,0.00,,,0.00,meteohub,2013-11-04 07:01:00,
2013-11-04 02:06:00,40.8,36.1,30.32,NE,50,1.0,4.0,83,0.00,,,0.00,meteohub,2013-11-04 07:06:00,
2013-11-04 02:11:00,40.6,36.0,30.32,NE,56,1.0,4.0,83,0.00,,,0.00,meteohub,2013-11-04 07:11:00,
2013-11-04 02:16:00,40.5,35.8,30.33,ENE,64,2.0,4.0,83,0.00,,,0.00,meteohub,2013-11-04 07:16:00,
2013-11-04 02:21:00,40.5,35.8,30.33,East,93,1.0,4.0,83,0.00,,,0.00,meteohub,2013-11-04 07:21:00,
2013-11-04 02:26:00,40.5,35.8,30.33,East,98,2.0,4.0,83,0.00,,,0.00,meteohub,2013-11-04 07:26:00,
2013-11-04 02:31:00,40.5,35.8,30.33,ENE,76,3.0,4.0,83,0.00,,,0.00,meteohub,2013-11-04 07:31:00,
2013-11-04 02:36:00,40.6,35.6,30.33,ENE,66,1.0,3.0,82,0.00,,,0.00,meteohub,2013-11-04 07:36:00,
2013-11-04 02:41:00,40.6,36.0,30.33,NE,54,1.0,3.0,83,0.00,,,0.00,meteohub,2013-11-04 07:41:00,
2013-11-04 02:46:00,40.5,35.4,30.33,NE,56,1.0,3.0,82,0.00,,,0.00,meteohub,2013-11-04 07:46:00,
2013-11-04 02:51:00,40.5,35.8,30.33,ENE,62,1.0,3.0,83,0.00,,,0.00,meteohub,2013-11-04 07:51:00,
2013-11-04 02:56:00,40.5,35.8,30.33,East,95,2.0,3.0,83,0.00,,,0.00,meteohub,2013-11-04 07:56:00,
2013-11-04 03:01:00,40.3,35.6,30.32,East,83,3.0,3.0,83,0.00,,,0.00,meteohub,2013-11-04 08:01:00,
2013-11-04 03:07:00,40.3,35.2,30.32,ENE,76,4.0,4.0,82,0.00,,,0.00,meteohub,2013-11-04 08:07:00,
2013-11-04 03:12:00,40.3,35.6,30.32,SE,131,1.0,5.0,83,0.00,,,0.00,meteohub,2013-11-04 08:12:00,
2013-11-04 03:17:00,39.9,35.2,30.32,ESE,107,1.0,5.0,83,0.00,,,0.00,meteohub,2013-11-04 08:17:00,
2013-11-04 03:22:00,39.9,35.2,30.32,ENE,77,2.0,5.0,83,0.00,,,0.00,meteohub,2013-11-04 08:22:00,
2013-11-04 03:27:00,39.9,35.2,30.32,ENE,65,0.0,4.0,83,0.00,,,0.00,meteohub,2013-11-04 08:27:00,
2013-11-04 03:32:00,39.9,34.9,30.32,ESE,104,2.0,3.0,82,0.00,,,0.00,meteohub,2013-11-04 08:32:00,
2013-11-04 03:37:00,40.3,35.2,30.32,ESE,107,1.0,4.0,82,0.00,,,0.00,meteohub,2013-11-04 08:37:00,
2013-11-04 03:42:00,40.3,35.2,30.32,ENE,75,1.0,4.0,82,0.00,,,0.00,meteohub,2013-11-04 08:42:00,
2013-11-04 03:47:00,40.3,35.2,30.32,ENE,73,2.0,3.0,82,0.00,,,0.00,meteohub,2013-11-04 08:47:00,
2013-11-04 03:52:00,40.3,34.9,30.32,ENE,75,2.0,3.0,81,0.00,,,0.00,meteohub,2013-11-04 08:52:00,
2013-11-04 03:57:00,40.3,34.9,30.32,ENE,75,2.0,3.0,81,0.00,,,0.00,meteohub,2013-11-04 08:57:00,
2013-11-04 04:02:00,40.3,34.9,30.32,ENE,70,1.0,3.0,81,0.00,,,0.00,meteohub,2013-11-04 09:02:00,
2013-11-04 04:07:00,40.3,34.9,30.32,East,80,2.0,3.0,81,0.00,,,0.00,meteohub,2013-11-04 09:07:00,
2013-11-04 04:12:00,40.3,34.9,30.32,East,87,2.0,4.0,81,0.00,,,0.00,meteohub,2013-11-04 09:12:00,
2013-11-04 04:17:00,40.1,34.7,30.31,East,83,1.0,4.0,81,0.00,,,0.00,meteohub,2013-11-04 09:17:00,
2013-11-04 04:22:00,39.9,34.5,30.31,East,97,2.0,4.0,81,0.00,,,0.00,meteohub,2013-11-04 09:22:00,
2013-11-04 04:27:00,39.9,34.5,30.31,ESE,102,2.0,4.0,81,0.00,,,0.00,meteohub,2013-11-04 09:27:00,
2013-11-04 04:32:00,40.1,34.7,30.32,ESE,119,2.0,4.0,81,0.00,,,0.00,meteohub,2013-11-04 09:32:00,
2013-11-04 04:37:00,40.3,34.9,30.32,ENE,72,1.0,4.0,81,0.00,,,0.00,meteohub,2013-11-04 09:37:00,
2013-11-04 04:42:00,40.3,34.5,30.32,ESE,123,5.0,5.0,80,0.00,,,0.00,meteohub,2013-11-04 09:42:00,
2013-11-04 04:47:00,40.5,34.7,30.32,ESE,114,2.0,5.0,80,0.00,,,0.00,meteohub,2013-11-04 09:47:00,
2013-11-04 04:52:00,40.5,34.7,30.32,East,93,2.0,5.0,80,0.00,,,0.00,meteohub,2013-11-04 09:52:00,
2013-11-04 04:57:00,40.5,34.7,30.32,ESE,120,1.0,5.0,80,0.00,,,0.00,meteohub,2013-11-04 09:57:00,
2013-11-04 05:03:00,40.6,34.7,30.33,ESE,111,3.0,5.0,79,0.00,,,0.00,meteohub,2013-11-04 10:03:00,
2013-11-04 05:08:00,40.6,34.7,30.33,ESE,117,2.0,6.0,79,0.00,,,0.00,meteohub,2013-11-04 10:08:00,
2013-11-04 05:13:00,40.6,34.7,30.33,ESE,110,2.0,6.0,79,0.00,,,0.00,meteohub,2013-11-04 10:13:00,
2013-11-04 05:18:00,40.6,34.7,30.33,ESE,111,2.0,6.0,79,0.00,,,0.00,meteohub,2013-11-04 10:18:00,
2013-11-04 05:23:00,40.6,34.7,30.34,ESE,117,3.0,4.0,79,0.00,,,0.00,meteohub,2013-11-04 10:23:00,
2013-11-04 05:28:00,40.6,34.7,30.34,ESE,117,1.0,4.0,79,0.00,,,0.00,meteohub,2013-11-04 10:28:00,
2013-11-04 05:33:00,40.6,34.7,30.34,ESE,117,1.0,4.0,79,0.00,,,0.00,meteohub,2013-11-04 10:33:00,
2013-11-04 05:38:00,40.5,34.5,30.34,ESE,115,3.0,4.0,79,0.00,,,0.00,meteohub,2013-11-04 10:38:00,
2013-11-04 05:43:00,40.6,34.7,30.34,SE,125,3.0,4.0,79,0.00,,,0.00,meteohub,2013-11-04 10:43:00,
2013-11-04 05:48:00,40.5,34.5,30.35,ESE,121,2.0,4.0,79,0.00,,,0.00,meteohub,2013-11-04 10:48:00,
2013-11-04 05:53:00,40.5,34.7,30.34,East,93,4.0,4.0,80,0.00,,,0.00,meteohub,2013-11-04 10:53:00,
2013-11-04 05:58:00,40.5,34.7,30.34,ESE,118,2.0,6.0,80,0.00,,,0.00,meteohub,2013-11-04 10:58:00,
2013-11-04 06:03:00,40.3,34.5,30.34,ESE,118,2.0,6.0,80,0.00,,,0.00,meteohub,2013-11-04 11:03:00,
2013-11-04 06:08:00,40.3,34.5,30.35,ESE,106,2.0,6.0,80,0.00,,,0.00,meteohub,2013-11-04 11:08:00,
2013-11-04 06:13:00,40.3,34.5,30.34,ESE,107,2.0,4.0,80,0.00,,,0.00,meteohub,2013-11-04 11:13:00,
2013-11-04 06:14:00,40.3,34.5,30.34,ESE,107,2.0,4.0,80,0.00,,,0.00,meteohub,2013-11-04 11:14:00,
2013-11-04 06:19:00,40.1,34.5,30.35,SE,124,1.0,4.0,80,0.00,,,0.00,meteohub,2013-11-04 11:19:00,
2013-11-04 06:24:00,40.3,34.5,30.34,ESE,117,3.0,4.0,80,0.00,,,0.00,meteohub,2013-11-04 11:24:00,
2013-11-04 06:26:00,40.3,34.5,30.34,ESE,111,2.0,4.0,80,0.00,,,0.00,meteohub,2013-11-04 11:26:00,
2013-11-04 06:31:00,40.3,34.5,30.35,ESE,108,2.0,4.0,80,0.00,,,0.00,meteohub,2013-11-04 11:31:00,
2013-11-04 06:36:00,40.3,34.5,30.35,East,86,2.0,3.0,80,0.00,,,0.00,meteohub,2013-11-04 11:36:00,
2013-11-04 06:41:00,40.3,34.5,30.35,East,95,2.0,3.0,80,0.00,,,0.00,meteohub,2013-11-04 11:41:00,
2013-11-04 06:46:00,40.3,34.5,30.35,ESE,120,2.0,4.0,80,0.00,,,0.00,meteohub,2013-11-04 11:46:00,
2013-11-04 06:51:00,40.3,34.9,30.35,ENE,78,1.0,4.0,81,0.00,,,0.00,meteohub,2013-11-04 11:51:00,
2013-11-04 06:56:00,40.1,34.7,30.35,ESE,121,2.0,4.0,81,0.00,,,0.00,meteohub,2013-11-04 11:56:00,
2013-11-04 07:01:00,40.1,34.7,30.35,ESE,112,4.0,4.0,81,0.00,,,0.00,meteohub,2013-11-04 12:01:00,
2013-11-04 07:06:00,40.1,34.7,30.35,ESE,118,3.0,5.0,81,0.00,,,0.00,meteohub,2013-11-04 12:06:00,
2013-11-04 07:12:00,40.3,34.9,30.35,ESE,122,1.0,5.0,81,0.00,,,0.00,meteohub,2013-11-04 12:12:00,
2013-11-04 07:17:00,40.3,34.9,30.35,ESE,114,2.0,5.0,81,0.00,,,0.00,meteohub,2013-11-04 12:17:00,
2013-11-04 07:22:00,40.5,35.1,30.35,SE,145,2.0,5.0,81,0.00,,,0.00,meteohub,2013-11-04 12:22:00,
2013-11-04 07:27:00,40.6,35.2,30.35,SE,127,1.0,5.0,81,0.00,,,0.00,meteohub,2013-11-04 12:27:00,
2013-11-04 07:32:00,40.8,35.4,30.35,SSE,155,5.0,5.0,81,0.00,,,0.00,meteohub,2013-11-04 12:32:00,
2013-11-04 07:37:00,40.8,35.1,30.35,SE,137,4.0,5.0,80,0.00,,,0.00,meteohub,2013-11-04 12:37:00,
2013-11-04 07:42:00,41.2,35.4,30.35,SE,142,2.0,5.0,80,0.00,,,0.00,meteohub,2013-11-04 12:42:00,
2013-11-04 07:47:00,41.4,35.6,30.35,SSE,160,4.0,5.0,80,0.00,,,0.00,meteohub,2013-11-04 12:47:00,
2013-11-04 07:52:00,41.5,35.8,30.35,SE,143,2.0,7.0,80,0.00,,,0.00,meteohub,2013-11-04 12:52:00,
2013-11-04 07:57:00,41.7,35.8,30.36,SE,146,2.0,7.0,79,0.00,,,0.00,meteohub,2013-11-04 12:57:00,
2013-11-04 08:02:00,42.1,36.0,30.36,SSE,149,2.0,7.0,79,0.00,,,0.00,meteohub,2013-11-04 13:02:00,
2013-11-04 08:07:00,42.3,36.0,30.37,SSE,166,4.0,6.0,78,0.00,,,0.00,meteohub,2013-11-04 13:07:00,
2013-11-04 08:12:00,42.3,36.0,30.37,SSE,148,4.0,6.0,78,0.00,,,0.00,meteohub,2013-11-04 13:12:00,
2013-11-04 08:17:00,42.4,36.1,30.37,SSE,147,1.0,6.0,78,0.00,,,0.00,meteohub,2013-11-04 13:17:00,
2013-11-04 08:22:00,43.0,36.7,30.37,SE,138,3.0,6.0,78,0.00,,,0.00,meteohub,2013-11-04 13:22:00,
2013-11-04 08:27:00,43.3,36.7,30.37,SSE,162,2.0,6.0,77,0.00,,,0.00,meteohub,2013-11-04 13:27:00,
2013-11-04 08:32:00,43.5,36.1,30.37,SSE,158,4.0,6.0,75,0.00,,,0.00,meteohub,2013-11-04 13:32:00,
2013-11-04 08:37:00,43.9,36.5,30.38,SSE,162,4.0,6.0,75,0.00,,,0.00,meteohub,2013-11-04 13:37:00,
2013-11-04 08:42:00,44.1,36.3,30.38,SSE,168,5.0,7.0,74,0.00,,,0.00,meteohub,2013-11-04 13:42:00,
2013-11-04 08:47:00,44.1,36.7,30.39,South,172,5.0,7.0,75,0.00,,,0.00,meteohub,2013-11-04 13:47:00,
2013-11-04 08:52:00,44.2,36.5,30.38,SSE,163,4.0,7.0,74,0.00,,,0.00,meteohub,2013-11-04 13:52:00,
2013-11-04 08:57:00,44.6,36.9,30.38,SSE,156,3.0,7.0,74,0.00,,,0.00,meteohub,2013-11-04 13:57:00,
2013-11-04 09:02:00,45.0,37.2,30.38,SSE,159,2.0,6.0,74,0.00,,,0.00,meteohub,2013-11-04 14:02:00,
2013-11-04 09:07:00,45.1,37.0,30.38,SSE,158,2.0,6.0,73,0.00,,,0.00,meteohub,2013-11-04 14:07:00,
2013-11-04 09:12:00,45.7,37.6,30.38,SSE,156,3.0,5.0,73,0.00,,,0.00,meteohub,2013-11-04 14:12:00,
2013-11-04 09:17:00,46.0,37.6,30.38,SE,136,4.0,5.0,72,0.00,,,0.00,meteohub,2013-11-04 14:17:00,
2013-11-04 09:22:00,46.6,38.1,30.38,SE,145,4.0,5.0,72,0.00,,,0.00,meteohub,2013-11-04 14:22:00,
2013-11-04 09:27:00,46.9,38.1,30.38,SSE,157,6.0,6.0,71,0.00,,,0.00,meteohub,2013-11-04 14:27:00,
2013-11-04 09:32:00,47.1,38.1,30.38,South,179,2.0,7.0,71,0.00,,,0.00,meteohub,2013-11-04 14:32:00,
2013-11-04 09:37:00,47.5,38.5,30.38,South,183,3.0,7.0,71,0.00,,,0.00,meteohub,2013-11-04 14:37:00,
2013-11-04 09:42:00,48.0,38.7,30.38,SSE,164,6.0,7.0,70,0.00,,,0.00,meteohub,2013-11-04 14:42:00,
2013-11-04 09:47:00,48.6,39.2,30.38,South,169,5.0,6.0,70,0.00,,,0.00,meteohub,2013-11-04 14:47:00,
2013-11-04 09:52:00,49.3,39.6,30.38,SSE,168,4.0,8.0,69,0.00,,,0.00,meteohub,2013-11-04 14:52:00,
2013-11-04 09:57:00,49.6,39.6,30.38,SSE,156,2.0,8.0,68,0.00,,,0.00,meteohub,2013-11-04 14:57:00,
2013-11-04 10:02:00,50.0,39.6,30.38,SSE,164,5.0,6.0,67,0.00,,,0.00,meteohub,2013-11-04 15:02:00,
2013-11-04 10:07:00,50.5,40.5,30.38,South,170,4.0,6.0,68,0.00,,,0.00,meteohub,2013-11-04 15:07:00,
2013-11-04 10:12:00,51.1,40.8,30.38,SSW,210,8.0,8.0,68,0.00,,,0.00,meteohub,2013-11-04 15:12:00,
2013-11-04 10:17:00,51.4,39.2,30.38,WSW,258,4.0,8.0,63,0.00,,,0.00,meteohub,2013-11-04 15:17:00,
2013-11-04 10:22:00,52.3,39.7,30.38,SSW,193,4.0,12.0,62,0.00,,,0.00,meteohub,2013-11-04 15:22:00,
2013-11-04 10:27:00,52.7,39.2,30.38,SSW,199,5.0,12.0,60,0.00,,,0.00,meteohub,2013-11-04 15:27:00,
2013-11-04 10:32:00,53.1,39.2,30.39,SSW,203,4.0,11.0,59,0.00,,,0.00,meteohub,2013-11-04 15:32:00,
2013-11-04 10:38:00,53.2,39.7,30.39,WSW,241,3.0,11.0,60,0.00,,,0.00,meteohub,2013-11-04 15:38:00,
2013-11-04 10:43:00,54.3,39.9,30.39,SE,144,6.0,11.0,58,0.00,,,0.00,meteohub,2013-11-04 15:43:00,
2013-11-04 10:48:00,54.1,39.7,30.39,South,181,5.0,10.0,58,0.00,,,0.00,meteohub,2013-11-04 15:48:00,
2013-11-04 10:53:00,54.7,40.3,30.39,South,186,3.0,10.0,58,0.00,,,0.00,meteohub,2013-11-04 15:53:00,
2013-11-04 10:58:00,55.0,40.5,30.38,SSW,196,8.0,10.0,58,0.00,,,0.00,meteohub,2013-11-04 15:58:00,
2013-11-04 11:03:00,55.9,40.5,30.38,South,172,6.0,10.0,56,0.00,,,0.00,meteohub,2013-11-04 16:03:00,
2013-11-04 11:08:00,56.5,40.5,30.38,South,172,7.0,9.0,55,0.00,,,0.00,meteohub,2013-11-04 16:08:00,
2013-11-04 11:13:00,56.8,39.9,30.38,SW,228,4.0,9.0,53,0.00,,,0.00,meteohub,2013-11-04 16:13:00,
2013-11-04 11:18:00,57.6,40.1,30.39,SW,228,4.0,11.0,52,0.00,,,0.00,meteohub,2013-11-04 16:18:00,
2013-11-04 11:23:00,58.5,39.9,30.38,SSW,210,4.0,11.0,50,0.00,,,0.00,meteohub,2013-11-04 16:23:00,
2013-11-04 11:28:00,58.8,40.8,30.38,WNW,298,3.0,11.0,51,0.00,,,0.00,meteohub,2013-11-04 16:28:00,
2013-11-04 11:33:00,59.9,40.1,30.38,SSW,204,4.0,10.0,48,0.00,,,0.00,meteohub,2013-11-04 16:33:00,
2013-11-04 11:38:00,60.3,39.9,30.38,SSW,208,3.0,10.0,47,0.00,,,0.00,meteohub,2013-11-04 16:38:00,
2013-11-04 11:43:00,60.4,39.0,30.38,WSW,245,4.0,10.0,45,0.00,,,0.00,meteohub,2013-11-04 16:43:00,
2013-11-04 11:48:00,60.6,39.2,30.37,South,191,7.0,14.0,45,0.00,,,0.00,meteohub,2013-11-04 16:48:00,
2013-11-04 11:54:00,60.4,39.0,30.37,South,190,7.0,14.0,45,0.00,,,0.00,meteohub,2013-11-04 16:54:00,
2013-11-04 11:59:00,60.3,38.8,30.37,SSW,199,9.0,14.0,45,0.00,,,0.00,meteohub,2013-11-04 16:59:00,
2013-11-04 12:04:00,60.3,38.3,30.37,SSW,213,6.0,13.0,44,0.00,,,0.00,meteohub,2013-11-04 17:04:00,
2013-11-04 12:09:00,60.3,38.3,30.37,SW,220,8.0,13.0,44,0.00,,,0.00,meteohub,2013-11-04 17:09:00,
2013-11-04 12:14:00,61.2,39.0,30.37,SSW,208,6.0,13.0,44,0.00,,,0.00,meteohub,2013-11-04 17:14:00,
2013-11-04 12:19:00,61.5,38.8,30.37,SSW,211,7.0,13.0,43,0.00,,,0.00,meteohub,2013-11-04 17:19:00,
2013-11-04 12:24:00,61.5,38.8,30.36,SSW,210,6.0,14.0,43,0.00,,,0.00,meteohub,2013-11-04 17:24:00,
2013-11-04 12:29:00,61.2,39.0,30.35,SSW,208,8.0,14.0,44,0.00,,,0.00,meteohub,2013-11-04 17:29:00,
2013-11-04 12:34:00,60.4,39.0,30.35,SW,229,7.0,14.0,45,0.00,,,0.00,meteohub,2013-11-04 17:34:00,
2013-11-04 12:39:00,60.6,39.2,30.35,SSW,195,4.0,15.0,45,0.00,,,0.00,meteohub,2013-11-04 17:39:00,
2013-11-04 12:44:00,61.0,39.6,30.35,South,185,5.0,15.0,45,0.00,,,0.00,meteohub,2013-11-04 17:44:00,
2013-11-04 12:49:00,61.2,39.7,30.35,WSW,242,9.0,15.0,45,0.00,,,0.00,meteohub,2013-11-04 17:49:00,
2013-11-04 12:54:00,61.3,38.7,30.35,WSW,256,7.0,11.0,43,0.00,,,0.00,meteohub,2013-11-04 17:54:00,
2013-11-04 13:00:00,61.7,38.3,30.34,SSW,212,8.0,12.0,42,0.00,,,0.00,meteohub,2013-11-04 18:00:00,
2013-11-04 13:05:00,61.9,37.9,30.34,SW,215,3.0,13.0,41,0.00,,,0.00,meteohub,2013-11-04 18:05:00,
2013-11-04 13:10:00,61.9,38.5,30.33,SW,229,4.0,13.0,42,0.00,,,0.00,meteohub,2013-11-04 18:10:00,
2013-11-04 13:15:00,61.9,37.9,30.33,SSW,204,3.0,14.0,41,0.00,,,0.00,meteohub,2013-11-04 18:15:00,
2013-11-04 13:20:00,62.2,37.6,30.33,SSW,210,4.0,13.0,40,0.00,,,0.00,meteohub,2013-11-04 18:20:00,
2013-11-04 13:25:00,62.2,38.3,30.32,West,264,6.0,12.0,41,0.00,,,0.00,meteohub,2013-11-04 18:25:00,
2013-11-04 13:30:00,62.1,38.1,30.32,West,279,3.0,10.0,41,0.00,,,0.00,meteohub,2013-11-04 18:30:00,
2013-11-04 13:35:00,61.9,37.9,30.31,WSW,239,6.0,10.0,41,0.00,,,0.00,meteohub,2013-11-04 18:35:00,
2013-11-04 13:40:00,61.5,38.3,30.31,SW,230,5.0,10.0,42,0.00,,,0.00,meteohub,2013-11-04 18:40:00,
2013-11-04 13:45:00,61.5,38.3,30.31,WSW,255,7.0,9.0,42,0.00,,,0.00,meteohub,2013-11-04 18:45:00,
2013-11-04 13:50:00,61.9,38.5,30.31,SSW,199,6.0,9.0,42,0.00,,,0.00,meteohub,2013-11-04 18:50:00,
2013-11-04 13:55:00,61.3,37.4,30.30,SSW,204,8.0,14.0,41,0.00,,,0.00,meteohub,2013-11-04 18:55:00,
2013-11-04 14:00:00,61.2,37.2,30.31,WSW,247,2.0,14.0,41,0.00,,,0.00,meteohub,2013-11-04 19:00:00,
2013-11-04 14:05:00,61.5,37.6,30.30,SSW,208,3.0,14.0,41,0.00,,,0.00,meteohub,2013-11-04 19:05:00,
2013-11-04 14:11:00,61.5,37.6,30.31,SSE,166,8.0,13.0,41,0.00,,,0.00,meteohub,2013-11-04 19:11:00,
2013-11-04 14:16:00,61.3,36.1,30.30,South,174,8.0,14.0,39,0.00,,,0.00,meteohub,2013-11-04 19:16:00,
2013-11-04 14:21:00,61.2,36.7,30.30,SW,222,7.0,15.0,40,0.00,,,0.00,meteohub,2013-11-04 19:21:00,
2013-11-04 14:26:00,61.2,37.2,30.30,WSW,247,7.0,15.0,41,0.00,,,0.00,meteohub,2013-11-04 19:26:00,
2013-11-04 14:31:00,61.5,37.0,30.30,SSW,201,5.0,11.0,40,0.00,,,0.00,meteohub,2013-11-04 19:31:00,
2013-11-04 14:36:00,61.5,37.0,30.30,SSW,192,5.0,10.0,40,0.00,,,0.00,meteohub,2013-11-04 19:36:00,
2013-11-04 14:41:00,62.1,37.4,30.30,WSW,250,1.0,10.0,40,0.00,,,0.00,meteohub,2013-11-04 19:41:00,
2013-11-04 14:46:00,62.2,37.6,30.30,SW,216,5.0,12.0,40,0.00,,,0.00,meteohub,2013-11-04 19:46:00,
2013-11-04 14:51:00,62.1,37.4,30.30,SSW,193,4.0,12.0,40,0.00,,,0.00,meteohub,2013-11-04 19:51:00,
2013-11-04 14:56:00,62.2,37.6,30.31,SSW,206,3.0,12.0,40,0.00,,,0.00,meteohub,2013-11-04 19:56:00,
2013-11-04 15:01:00,62.1,37.4,30.30,South,183,5.0,9.0,40,0.00,,,0.00,meteohub,2013-11-04 20:01:00,
2013-11-04 15:07:00,61.9,37.2,30.30,WSW,241,3.0,9.0,40,0.00,,,0.00,meteohub,2013-11-04 20:07:00,
2013-11-04 15:12:00,62.1,38.1,30.31,SSW,213,3.0,9.0,41,0.00,,,0.00,meteohub,2013-11-04 20:12:00,
2013-11-04 15:17:00,61.9,37.9,30.31,SSW,202,2.0,9.0,41,0.00,,,0.00,meteohub,2013-11-04 20:17:00,
2013-11-04 15:22:00,61.9,37.9,30.31,WSW,253,3.0,8.0,41,0.00,,,0.00,meteohub,2013-11-04 20:22:00,
2013-11-04 15:27:00,62.2,37.6,30.31,SW,233,4.0,8.0,40,0.00,,,0.00,meteohub,2013-11-04 20:27:00,
2013-11-04 15:32:00,62.6,38.5,30.32,SSW,212,5.0,7.0,41,0.00,,,0.00,meteohub,2013-11-04 20:32:00,
2013-11-04 15:37:00,62.8,38.1,30.31,SSW,212,5.0,7.0,40,0.00,,,0.00,meteohub,2013-11-04 20:37:00,
2013-11-04 15:42:00,62.8,37.4,30.31,SSW,204,5.0,7.0,39,0.00,,,0.00,meteohub,2013-11-04 20:42:00,
2013-11-04 15:47:00,62.8,38.1,30.32,West,271,4.0,7.0,40,0.00,,,0.00,meteohub,2013-11-04 20:47:00,
2013-11-04 15:52:00,62.6,37.9,30.32,West,272,6.0,7.0,40,0.00,,,0.00,meteohub,2013-11-04 20:52:00,
2013-11-04 15:57:00,62.4,38.5,30.32,SSW,206,4.0,8.0,41,0.00,,,0.00,meteohub,2013-11-04 20:57:00,
2013-11-04 16:02:00,62.2,38.3,30.32,West,262,3.0,8.0,41,0.00,,,0.00,meteohub,2013-11-04 21:02:00,
2013-11-04 16:07:00,62.1,38.7,30.32,WSW,256,3.0,8.0,42,0.00,,,0.00,meteohub,2013-11-04 21:07:00,
2013-11-04 16:12:00,61.9,39.2,30.32,West,261,6.0,7.0,43,0.00,,,0.00,meteohub,2013-11-04 21:12:00,
2013-11-04 16:17:00,61.5,39.4,30.31,West,269,3.0,7.0,44,0.00,,,0.00,meteohub,2013-11-04 21:17:00,
2013-11-04 16:22:00,61.3,39.2,30.31,SW,229,3.0,6.0,44,0.00,,,0.00,meteohub,2013-11-04 21:22:00,
2013-11-04 16:27:00,61.3,39.7,30.31,SSW,213,1.0,7.0,45,0.00,,,0.00,meteohub,2013-11-04 21:27:00,
2013-11-04 16:32:00,61.2,39.7,30.31,SSW,198,2.0,7.0,45,0.00,,,0.00,meteohub,2013-11-04 21:32:00,
2013-11-04 16:37:00,61.0,39.6,30.31,WSW,244,9.0,9.0,45,0.00,,,0.00,meteohub,2013-11-04 21:37:00,
2013-11-04 16:42:00,60.6,38.7,30.31,South,190,3.0,9.0,44,0.00,,,0.00,meteohub,2013-11-04 21:42:00,
2013-11-04 16:47:00,60.4,38.5,30.32,SW,215,2.0,10.0,44,0.00,,,0.00,meteohub,2013-11-04 21:47:00,
2013-11-04 16:52:00,60.3,38.3,30.32,SW,226,2.0,10.0,44,0.00,,,0.00,meteohub,2013-11-04 21:52:00,
2013-11-04 16:57:00,60.1,38.7,30.32,SSW,193,5.0,10.0,45,0.00,,,0.00,meteohub,2013-11-04 21:57:00,
2013-11-04 17:02:00,59.9,39.0,30.32,SSW,210,5.0,9.0,46,0.00,,,0.00,meteohub,2013-11-04 22:02:00,
2013-11-04 17:07:00,59.7,38.8,30.31,WSW,245,3.0,9.0,46,0.00,,,0.00,meteohub,2013-11-04 22:07:00,
2013-11-04 17:12:00,59.7,38.3,30.32,SSW,199,3.0,8.0,45,0.00,,,0.00,meteohub,2013-11-04 22:12:00,
2013-11-04 17:17:00,59.5,38.1,30.31,SSW,204,4.0,8.0,45,0.00,,,0.00,meteohub,2013-11-04 22:17:00,
2013-11-04 17:22:00,59.5,38.1,30.31,SSW,209,3.0,7.0,45,0.00,,,0.00,meteohub,2013-11-04 22:22:00,
2013-11-04 17:27:00,59.4,38.7,30.31,South,189,2.0,7.0,46,0.00,,,0.00,meteohub,2013-11-04 22:27:00,
2013-11-04 17:33:00,59.2,38.5,30.30,SSE,168,4.0,7.0,46,0.00,,,0.00,meteohub,2013-11-04 22:33:00,
2013-11-04 17:38:00,59.2,39.0,30.30,South,177,2.0,6.0,47,0.00,,,0.00,meteohub,2013-11-04 22:38:00,
2013-11-04 17:43:00,59.0,38.8,30.31,SSW,194,2.0,5.0,47,0.00,,,0.00,meteohub,2013-11-04 22:43:00,
2013-11-04 17:48:00,58.8,38.7,30.29,SSE,150,2.0,5.0,47,0.00,,,0.00,meteohub,2013-11-04 22:48:00,
2013-11-04 17:53:00,58.8,39.2,30.30,SSE,159,0.0,5.0,48,0.00,,,0.00,meteohub,2013-11-04 22:53:00,
2013-11-04 17:58:00,58.6,39.0,30.31,SSE,163,2.0,5.0,48,0.00,,,0.00,meteohub,2013-11-04 22:58:00,
2013-11-04 18:03:00,58.5,38.8,30.31,South,177,1.0,5.0,48,0.00,,,0.00,meteohub,2013-11-04 23:03:00,
2013-11-04 18:08:00,58.5,38.8,30.31,SSW,198,2.0,4.0,48,0.00,,,0.00,meteohub,2013-11-04 23:08:00,
2013-11-04 18:13:00,58.6,39.0,30.30,South,188,2.0,4.0,48,0.00,,,0.00,meteohub,2013-11-04 23:13:00,
2013-11-04 18:18:00,58.6,39.0,30.30,South,176,0.0,4.0,48,0.00,,,0.00,meteohub,2013-11-04 23:18:00,
2013-11-04 18:23:00,58.5,39.4,30.31,South,187,3.0,3.0,49,0.00,,,0.00,meteohub,2013-11-04 23:23:00,
2013-11-04 18:28:00,58.3,39.7,30.31,South,177,2.0,3.0,50,0.00,,,0.00,meteohub,2013-11-04 23:28:00,
2013-11-04 18:34:00,58.1,39.6,30.31,SSE,164,2.0,3.0,50,0.00,,,0.00,meteohub,2013-11-04 23:34:00,
2013-11-04 18:39:00,57.9,39.4,30.32,South,185,5.0,5.0,50,0.00,,,0.00,meteohub,2013-11-04 23:39:00,
2013-11-04 18:44:00,57.9,38.8,30.32,South,182,6.0,6.0,49,0.00,,,0.00,meteohub,2013-11-04 23:44:00,
2013-11-04 18:49:00,57.7,38.7,30.32,SSE,162,6.0,8.0,49,0.00,,,0.00,meteohub,2013-11-04 23:49:00,
2013-11-04 18:54:00,57.7,38.7,30.32,South,173,5.0,8.0,49,0.00,,,0.00,meteohub,2013-11-04 23:54:00,
2013-11-04 18:59:00,57.7,38.7,30.32,South,174,4.0,8.0,49,0.00,,,0.00,meteohub,2013-11-04 23:59:00,
2013-11-04 19:04:00,57.7,38.7,30.31,SSE,156,5.0,7.0,49,0.00,,,0.00,meteohub,2013-11-05 00:04:00,
2013-11-04 19:09:00,57.7,38.7,30.31,South,173,2.0,6.0,49,0.00,,,0.00,meteohub,2013-11-05 00:09:00,
2013-11-04 19:14:00,57.7,38.7,30.31,South,174,2.0,6.0,49,0.00,,,0.00,meteohub,2013-11-05 00:14:00,
2013-11-04 19:19:00,57.7,38.7,30.31,SSE,167,4.0,6.0,49,0.00,,,0.00,meteohub,2013-11-05 00:19:00,
2013-11-04 19:24:00,57.6,38.5,30.31,SSE,161,2.0,6.0,49,0.00,,,0.00,meteohub,2013-11-05 00:24:00,
2013-11-04 19:29:00,57.4,38.3,30.31,SSE,156,3.0,6.0,49,0.00,,,0.00,meteohub,2013-11-05 00:29:00,
2013-11-04 19:34:00,57.2,38.7,30.31,SSE,157,5.0,6.0,50,0.00,,,0.00,meteohub,2013-11-05 00:34:00,
2013-11-04 19:39:00,57.0,38.5,30.31,SSE,160,4.0,6.0,50,0.00,,,0.00,meteohub,2013-11-05 00:39:00,
2013-11-04 19:45:00,57.0,38.5,30.32,South,174,2.0,6.0,50,0.00,,,0.00,meteohub,2013-11-05 00:45:00,
2013-11-04 19:50:00,56.8,38.5,30.32,South,184,3.0,6.0,50,0.00,,,0.00,meteohub,2013-11-05 00:50:00,
2013-11-04 19:55:00,56.8,38.5,30.32,South,189,2.0,5.0,50,0.00,,,0.00,meteohub,2013-11-05 00:55:00,
2013-11-04 20:00:00,57.0,38.5,30.32,South,189,4.0,5.0,50,0.00,,,0.00,meteohub,2013-11-05 01:00:00,
2013-11-04 20:05:00,57.0,39.0,30.32,South,182,2.0,4.0,51,0.00,,,0.00,meteohub,2013-11-05 01:05:00,
2013-11-04 20:10:00,57.2,38.7,30.32,South,175,2.0,4.0,50,0.00,,,0.00,meteohub,2013-11-05 01:10:00,
2013-11-04 20:15:00,57.0,38.5,30.33,SSE,167,1.0,4.0,50,0.00,,,0.00,meteohub,2013-11-05 01:15:00,
2013-11-04 20:20:00,57.0,38.5,30.33,SSE,164,2.0,4.0,50,0.00,,,0.00,meteohub,2013-11-05 01:20:00,
2013-11-04 20:25:00,57.0,39.6,30.33,SSE,162,1.0,4.0,52,0.00,,,0.00,meteohub,2013-11-05 01:25:00,
2013-11-04 20:30:00,56.7,39.2,30.32,SSE,158,0.0,4.0,52,0.00,,,0.00,meteohub,2013-11-05 01:30:00,
2013-11-04 20:35:00,56.5,39.6,30.32,SSE,157,1.0,2.0,53,0.00,,,0.00,meteohub,2013-11-05 01:35:00,
2013-11-04 20:40:00,56.1,39.2,30.32,SSE,163,2.0,2.0,53,0.00,,,0.00,meteohub,2013-11-05 01:40:00,
2013-11-04 20:45:00,55.9,39.6,30.32,SSE,156,2.0,4.0,54,0.00,,,0.00,meteohub,2013-11-05 01:45:00,
2013-11-04 20:50:00,55.8,38.8,30.32,SSE,161,2.0,4.0,53,0.00,,,0.00,meteohub,2013-11-05 01:50:00,
2013-11-04 20:56:00,55.6,38.7,30.32,South,177,3.0,4.0,53,0.00,,,0.00,meteohub,2013-11-05 01:56:00,
2013-11-04 21:01:00,55.6,39.2,30.32,SSE,166,3.0,4.0,54,0.00,,,0.00,meteohub,2013-11-05 02:01:00,
2013-11-04 21:06:00,55.6,39.2,30.32,South,185,1.0,4.0,54,0.00,,,0.00,meteohub,2013-11-05 02:06:00,
2013-11-04 21:11:00,55.6,38.7,30.32,SSE,157,2.0,4.0,53,0.00,,,0.00,meteohub,2013-11-05 02:11:00,
2013-11-04 21:16:00,55.4,38.5,30.32,South,189,4.0,4.0,53,0.00,,,0.00,meteohub,2013-11-05 02:16:00,
2013-11-04 21:21:00,55.2,38.3,30.33,SSW,195,3.0,5.0,53,0.00,,,0.00,meteohub,2013-11-05 02:21:00,
2013-11-04 21:26:00,55.4,38.5,30.33,South,181,3.0,5.0,53,0.00,,,0.00,meteohub,2013-11-05 02:26:00,
2013-11-04 21:31:00,55.6,38.7,30.32,SSE,158,4.0,5.0,53,0.00,,,0.00,meteohub,2013-11-05 02:31:00,
2013-11-04 21:36:00,55.4,39.0,30.32,SSE,157,1.0,6.0,54,0.00,,,0.00,meteohub,2013-11-05 02:36:00,
2013-11-04 21:41:00,55.2,38.3,30.34,SSW,209,3.0,6.0,53,0.00,,,0.00,meteohub,2013-11-05 02:41:00,
2013-11-04 21:47:00,55.6,38.7,30.34,SSW,204,2.0,6.0,53,0.00,,,0.00,meteohub,2013-11-05 02:47:00,
2013-11-04 21:52:00,55.8,38.5,30.33,SSE,153,1.0,5.0,52,0.00,,,0.00,meteohub,2013-11-05 02:52:00,
2013-11-04 21:57:00,55.8,38.5,30.34,SE,129,1.0,5.0,52,0.00,,,0.00,meteohub,2013-11-05 02:57:00,
2013-11-04 22:02:00,55.9,38.5,30.34,SSW,198,3.0,4.0,52,0.00,,,0.00,meteohub,2013-11-05 03:02:00,
2013-11-04 22:07:00,55.9,38.1,30.34,South,173,3.0,4.0,51,0.00,,,0.00,meteohub,2013-11-05 03:07:00,
2013-11-04 22:12:00,55.9,38.5,30.34,South,170,2.0,4.0,52,0.00,,,0.00,meteohub,2013-11-05 03:12:00,
2013-11-04 22:17:00,55.8,38.5,30.34,SSW,197,3.0,4.0,52,0.00,,,0.00,meteohub,2013-11-05 03:17:00,
2013-11-04 22:22:00,55.8,37.9,30.34,South,183,3.0,6.0,51,0.00,,,0.00,meteohub,2013-11-05 03:22:00,
2013-11-04 22:27:00,55.8,37.9,30.34,SSW,206,4.0,6.0,51,0.00,,,0.00,meteohub,2013-11-05 03:27:00,
2013-11-04 22:32:00,55.9,38.1,30.34,South,181,5.0,6.0,51,0.00,,,0.00,meteohub,2013-11-05 03:32:00,
2013-11-04 22:37:00,55.9,38.1,30.34,SSW,201,2.0,6.0,51,0.00,,,0.00,meteohub,2013-11-05 03:37:00,
2013-11-04 22:42:00,55.9,37.6,30.33,SSW,199,5.0,6.0,50,0.00,,,0.00,meteohub,2013-11-05 03:42:00,
2013-11-04 22:47:00,55.9,37.6,30.33,SSW,194,4.0,7.0,50,0.00,,,0.00,meteohub,2013-11-05 03:47:00,
2013-11-04 22:52:00,55.9,37.6,30.33,South,175,2.0,7.0,50,0.00,,,0.00,meteohub,2013-11-05 03:52:00,
2013-11-04 22:57:00,55.9,37.6,30.33,SSW,199,2.0,7.0,50,0.00,,,0.00,meteohub,2013-11-05 03:57:00,
2013-11-04 23:03:00,55.9,38.1,30.33,South,189,5.0,7.0,51,0.00,,,0.00,meteohub,2013-11-05 04:03:00,
2013-11-04 23:08:00,55.8,37.4,30.33,SSW,194,4.0,6.0,50,0.00,,,0.00,meteohub,2013-11-05 04:08:00,
2013-11-04 23:13:00,55.8,37.4,30.33,SSW,195,4.0,6.0,50,0.00,,,0.00,meteohub,2013-11-05 04:13:00,
2013-11-04 23:18:00,55.6,37.8,30.33,South,185,4.0,7.0,51,0.00,,,0.00,meteohub,2013-11-05 04:18:00,
2013-11-04 23:23:00,55.6,37.8,30.33,South,187,4.0,7.0,51,0.00,,,0.00,meteohub,2013-11-05 04:23:00,
2013-11-04 23:28:00,55.4,37.6,30.33,South,187,4.0,8.0,51,0.00,,,0.00,meteohub,2013-11-05 04:28:00,
2013-11-04 23:33:00,55.6,37.2,30.32,South,173,5.0,8.0,50,0.00,,,0.00,meteohub,2013-11-05 04:33:00,
2013-11-04 23:38:00,55.6,37.2,30.32,South,183,6.0,8.0,50,0.00,,,0.00,meteohub,2013-11-05 04:38:00,
2013-11-04 23:43:00,55.4,37.0,30.32,South,191,4.0,9.0,50,0.00,,,0.00,meteohub,2013-11-05 04:43:00,
2013-11-04 23:49:00,55.2,36.9,30.32,SSW,204,5.0,9.0,50,0.00,,,0.00,meteohub,2013-11-05 04:49:00,
2013-11-04 23:54:00,55.2,36.9,30.33,SSW,192,3.0,9.0,50,0.00,,,0.00,meteohub,2013-11-05 04:54:00,
2013-11-04 23:59:00,55.6,37.2,30.33,SSW,201,4.0,8.0,50,0.00,,,0.00,meteohub,2013-11-05 04:59:00,